CZ-6A DEB, 54486

Orbit data source: Space-Track

CZ-6A DEB, 54486 is space debris in SSO originally from a launch on Fri, 11 Nov 2022 UTC launched from the Taiyaun Space Center, China (TSC). Debris objects in space refer to the collection of defunct objects orbiting the Earth. Examples of debris include non-operational satellites, rocket bodies, and fragments generated from explosions, collisions, or faulty payload assembly.

Loading next visibility...
Identifier
54486, 2022-151HN
Orbit
SSO
Country
Flag of CNCN / PRC
Related business
Manufacturer
SAST
Mission
Spacecraft
Bus & Motor
Unknown
Mass
Unknown
Launch date (UTC)
2022-11-11 (4 years ago)
Launch vehicle
Unknown
Launch site
Taiyaun Space Center, China (TSC)
Object type
Payload
Rocket body
Debris
Shape & HBR
Unknown shape, 1.1 m
Radar Cross Section
Medium (>0.1 m² and <1 m²)

Expand to show TLE details & history
Last TLE update: 2 days ago

TLE from 2 days ago
0 CZ-6A DEB
1 54486U 22151HN  26170.99807397  .00004871  00000-0  17835-2 0  9992
2 54486  98.7994 190.9847 0071554 325.5105  34.1446 14.31912382186120
Epoch: 2026-06-19T23:57Z
TLE epoch observation values (Epoch: 2026-06-19T23:57:13.591Z)
Latitude
0.00006°
Longitude
-76.54095°
Altitude
745.96 km
Speed
7.504 km/s
True Right ascension
12h 43m 56s
True Declination
0° 00' 00"
Sunlit
Object was in daylight at epoch
Visualization orbit readout
Latitude
Unknown
Longitude
Unknown
Altitude
Unknown
Speed
Unknown
Apparent Right ascension
Unknown
Apparent Declination
Unknown
Sunlit
N/A
Visualization observer readout
Local Sidereal Time
21:32:43
Azimuth
Unknown
Elevation
Unknown
Doppler factor
Unknown
Orbital elements
Apogee altitude
833.73 km
Perigee altitude
731.255 km
Semi-major axis
7,160.629 km
Eccentricity
0.00716
Inclination
98.7994°
RAAN
190.9847°
Arg. of periapsis
325.5105°
True anomaly
34.60825°
Mean anomaly
34.1446°
Eccentric anomaly
34.37608°
Mean motion
3.58192 °/min
Orbital period
100.5 mins
BSTAR
0.0017835
Loading maneuver chart data...
Computing Atmospheric mass density...
Loading historical data...
Loading historical data...
Loading historical data...
Loading historical data...
Loading historical data...
Loading historical data...
Loading historical data...

Documentation

Showing up to 5 results
|